Weather History for KPEZ - February, 2013

Change the Weather History Date:

Friday, February 15, 2013

  Actual Average Record
Temperature  
Mean Temperature 56 °F -  
Max Temperature 70 °F 70 °F 81 °F (2011)
Min Temperature 41 °F 46 °F 33 °F (2007)
Degree Days  
Heating Degree Days 10    
Growing Degree Days 6 (Base 50)    
Moisture  
Dew Point 40 °F    
Average Humidity 61    
Maximum Humidity 93    
Minimum Humidity 32    
Precipitation  
Precipitation 0.00 in - - ()
Sea Level Pressure  
Sea Level Pressure 30.19 in    
Wind  
Wind Speed 4 mph (NNE)    
Max Wind Speed 18 mph    
Max Gust Speed 30 mph    
Visibility 10 miles    
Events      
Averages and records for this station are not official NWS values.
T = Trace of Precipitation, MM = Missing Value Source: NWS Daily Summary

Daily Weather History Graph

Daily Weather History Graph

Search for Another Location

Airport or City:

Trip Planner

Search our weather history database for the weather conditions in past years. The results will help you decide how hot, cold, wet, or windy it might be!

Date:

Astronomy

Feb. 15, 2013 Rise Set
Actual Time 7:12 AM CST 6:24 PM CST
Civil Twilight 6:48 AM CST 6:48 PM CST
Nautical Twilight 6:20 AM CST 7:16 PM CST
Astronomical Twilight 5:52 AM CST 7:43 PM CST
Moon 10:20 AM CST (2/15) 11:53 PM CST (2/15)
Length of Visible Light 12h 00m
Length of Day
11h 11m
Waxing Crescent, 30% of the Moon is Illuminated
Feb 15
Waxing Crescent
Feb 17
First Quarter
Feb 25
Full
Mar 4
Last Quarter
Mar 11
New

Hourly Weather History & Observations

Time (CST) Temp. Windchill Dew Point Humidity Pressure Visibility Wind Dir Wind Speed Gust Speed Precip Events Conditions
12:15 AM 48.6 °F - 39.6 °F 71% 30.08 in 10.0 mi Calm Calm - N/A   Clear
12:35 AM 47.3 °F - 39.4 °F 74% 30.07 in 10.0 mi Calm Calm - N/A   Clear
12:55 AM 45.7 °F - 39.4 °F 79% 30.09 in 10.0 mi Calm Calm - N/A   Clear
1:15 AM 45.3 °F 44.0 °F 39.2 °F 79% 30.09 in 10.0 mi NNE 3.5 mph - N/A   Clear
1:35 AM 43.7 °F 41.1 °F 39.0 °F 84% 30.10 in 10.0 mi NNE 4.6 mph - N/A   Clear
1:55 AM 44.6 °F 43.1 °F 39.6 °F 82% 30.10 in 10.0 mi NNE 3.5 mph - N/A   Clear
2:15 AM 44.2 °F 41.8 °F 39.4 °F 83% 30.10 in 10.0 mi NE 4.6 mph - N/A   Clear
2:35 AM 43.7 °F 41.1 °F 39.4 °F 85% 30.10 in 10.0 mi NE 4.6 mph - N/A   Clear
2:55 AM 44.1 °F 42.5 °F 39.6 °F 84% 30.10 in 10.0 mi NE 3.5 mph - N/A   Clear
3:15 AM 43.7 °F 41.1 °F 39.7 °F 86% 30.10 in 10.0 mi NE 4.6 mph - N/A   Clear
3:35 AM 43.5 °F - 39.6 °F 86% 30.10 in 10.0 mi Calm Calm - N/A   Clear
3:55 AM 43.7 °F - 39.9 °F 87% 30.10 in 10.0 mi Calm Calm - N/A   Clear
4:15 AM 42.4 °F - 39.2 °F 88% 30.11 in 10.0 mi Calm Calm - N/A   Clear
4:35 AM 41.2 °F - 39.4 °F 93% 30.11 in 10.0 mi Calm Calm - N/A   Clear
4:55 AM 41.9 °F - 40.1 °F 93% 30.11 in 10.0 mi Calm Calm - N/A   Clear
5:15 AM 41.2 °F - 39.0 °F 92% 30.11 in 10.0 mi Calm Calm - N/A   Clear
5:35 AM 41.0 °F - 39.2 °F 93% 30.12 in 10.0 mi Calm Calm - N/A   Clear
5:55 AM 41.2 °F - 39.4 °F 93% 30.13 in 10.0 mi Calm Calm - N/A   Clear
6:15 AM 41.7 °F - 39.9 °F 93% 30.13 in 10.0 mi Calm Calm - N/A   Clear
6:35 AM 41.9 °F 40.0 °F 39.9 °F 93% 30.15 in 10.0 mi North 3.5 mph - N/A   Clear
6:55 AM 42.3 °F - 40.1 °F 92% 30.15 in 10.0 mi Calm Calm - N/A   Clear
7:15 AM 41.9 °F - 39.6 °F 91% 30.16 in 10.0 mi Calm Calm - N/A   Clear
7:35 AM 41.9 °F - 39.7 °F 92% 30.16 in 10.0 mi Calm Calm - N/A   Clear
7:55 AM 44.4 °F - 41.7 °F 90% 30.16 in 10.0 mi Calm Calm - N/A   Clear
8:15 AM 46.4 °F - 42.8 °F 87% 30.18 in 10.0 mi Calm Calm - N/A   Clear
8:35 AM 49.5 °F - 43.9 °F 81% 30.20 in 10.0 mi NNE 4.6 mph - N/A   Clear
8:55 AM 51.1 °F - 43.9 °F 76% 30.21 in 10.0 mi NNW 6.9 mph - N/A   Clear
9:15 AM 54.1 °F - 45.3 °F 72% 30.22 in 10.0 mi North 8.1 mph - N/A   Clear
9:35 AM 56.3 °F - 45.5 °F 67% 30.22 in 10.0 mi North 6.9 mph - N/A   Clear
9:55 AM 58.5 °F - 45.5 °F 62% 30.23 in 10.0 mi North 8.1 mph - N/A   Clear
10:15 AM 59.9 °F - 45.5 °F 59% 30.24 in 10.0 mi North 8.1 mph - N/A   Clear
10:35 AM 61.7 °F - 45.9 °F 56% 30.24 in 10.0 mi NNE 6.9 mph - N/A   Clear
10:55 AM 62.1 °F - 46.0 °F 56% 30.24 in 10.0 mi NE 8.1 mph - N/A   Clear
11:15 AM 62.6 °F - 46.0 °F 55% 30.24 in 10.0 mi North 6.9 mph - N/A   Clear
11:55 AM 64.9 °F - 46.0 °F 50% 30.22 in 10.0 mi NNE 8.1 mph - N/A   Clear
12:15 PM 65.8 °F - 45.9 °F 48% 30.21 in 7.0 mi North 11.5 mph 29.9 mph N/A   Clear
12:35 PM 66.0 °F - 45.1 °F 47% 30.21 in 10.0 mi North 10.4 mph - N/A   Clear
12:55 PM 66.6 °F - 43.5 °F 43% 30.19 in 10.0 mi NE 4.6 mph - N/A   Clear
1:15 PM 66.9 °F - 43.5 °F 43% 30.18 in 7.0 mi North 4.6 mph - N/A   Clear
1:35 PM 67.8 °F - 43.2 °F 41% 30.18 in 10.0 mi North 5.8 mph - N/A   Clear
1:55 PM 69.3 °F - 42.3 °F 38% 30.17 in 10.0 mi NNE 5.8 mph - N/A   Clear
2:15 PM 69.6 °F - 41.0 °F 35% 30.16 in 10.0 mi NNE 5.8 mph - N/A   Clear
2:35 PM 69.4 °F - 41.7 °F 37% 30.15 in 10.0 mi North 8.1 mph - N/A   Clear
2:55 PM 69.4 °F - 39.6 °F 34% 30.15 in 10.0 mi NNW 6.9 mph - N/A   Clear
3:15 PM 70.0 °F - 39.7 °F 33% 30.15 in 10.0 mi Calm Calm - N/A   Scattered Clouds
3:35 PM 69.8 °F - 39.2 °F 33% 30.14 in 10.0 mi ENE 3.5 mph - N/A   Scattered Clouds
3:55 PM 68.0 °F - 39.2 °F 35% 30.14 in 10.0 mi North 8.1 mph - N/A   Scattered Clouds
4:15 PM 68.4 °F - 38.7 °F 34% 30.14 in 10.0 mi NW 8.1 mph - N/A   Mostly Cloudy
4:35 PM 67.1 °F - 37.6 °F 34% 30.15 in 10.0 mi North 6.9 mph - N/A   Overcast
4:55 PM 66.4 °F - 37.6 °F 35% 30.16 in 10.0 mi North 4.6 mph - N/A   Overcast
5:15 PM 66.2 °F - 37.0 °F 34% 30.16 in 10.0 mi North 3.5 mph - N/A   Overcast
5:35 PM 65.3 °F - 34.5 °F 32% 30.17 in 10.0 mi NNE 8.1 mph 17.3 mph N/A   Overcast
5:55 PM 64.4 °F - 34.7 °F 33% 30.18 in 10.0 mi NNE 11.5 mph - N/A   Overcast
6:15 PM 63.1 °F - 34.9 °F 35% 30.18 in 10.0 mi North 9.2 mph - N/A   Overcast
6:35 PM 62.8 °F - 34.7 °F 35% 30.19 in 10.0 mi NNE 13.8 mph 17.3 mph N/A   Overcast
6:55 PM 61.2 °F - 35.4 °F 38% 30.20 in 10.0 mi NNE 12.7 mph 23.0 mph N/A   Overcast
7:15 PM 60.3 °F - 36.3 °F 41% 30.22 in 10.0 mi NNE 18.4 mph 26.5 mph N/A   Overcast
7:35 PM 58.3 °F - 37.4 °F 46% 30.24 in 10.0 mi NNE 16.1 mph 23.0 mph N/A   Overcast
7:55 PM 57.0 °F - 36.9 °F 47% 30.26 in 10.0 mi NNE 16.1 mph 24.2 mph N/A   Overcast
8:15 PM 56.3 °F - 36.9 °F 48% 30.27 in 10.0 mi North 18.4 mph 26.5 mph N/A   Overcast
8:35 PM 55.2 °F - 37.0 °F 50% 30.29 in 10.0 mi North 11.5 mph 20.7 mph N/A   Mostly Cloudy
8:55 PM 54.7 °F - 36.5 °F 50% 30.30 in 10.0 mi North 13.8 mph 21.9 mph N/A   Mostly Cloudy
9:15 PM 54.5 °F - 36.5 °F 51% 30.31 in 10.0 mi NNE 11.5 mph 20.7 mph N/A   Mostly Cloudy
9:35 PM 54.5 °F - 36.5 °F 51% 30.33 in 10.0 mi NNE 13.8 mph 23.0 mph N/A   Overcast
9:55 PM 54.5 °F - 36.0 °F 50% 30.34 in 10.0 mi NNE 12.7 mph 20.7 mph N/A   Overcast
10:15 PM 53.8 °F - 35.8 °F 51% 30.35 in 10.0 mi North 11.5 mph 17.3 mph N/A   Overcast
10:35 PM 53.2 °F - 34.7 °F 49% 30.36 in 10.0 mi North 12.7 mph 19.6 mph N/A   Overcast
10:55 PM 52.7 °F - 34.5 °F 50% 30.37 in 10.0 mi North 12.7 mph 18.4 mph N/A   Overcast
11:15 PM 51.8 °F - 33.8 °F 50% 30.38 in 10.0 mi NNE 13.8 mph 18.4 mph N/A   Overcast
11:35 PM 50.9 °F - 32.0 °F 48% 30.38 in 10.0 mi North 12.7 mph 17.3 mph N/A   Overcast
11:55 PM 50.5 °F - 30.9 °F 47% 30.39 in 10.0 mi NNE 15.0 mph 19.6 mph N/A   Overcast